STARLINK-3045, 49173

Orbit data source: Space-Track

STARLINK-3045, 49173 is a payload satellite owned by SpaceX/Seattle (US) in LEO that was launched on Tue, 14 Sep 2021 UTC via an FALCON 9 launch vehicle from the Air Force Western Test Range (AFWTR). Payload-class satellites include a variety of spacecraft equipped with specific instruments for various scientific and technological missions. These include communications satellites like Starlink; space stations such as the ISS; scientific satellites like the Hubble; Earth observation satellites from companies like Planet Labs, Umbra, and HawkEye 360; GPS; miniature CubeSats for education and research; and military/defense satellites.

Loading next visibility...
Identifier
49173, 2021-082AV
Orbit
LEO
Country
Flag of USUS
Related business
Manufacturer
SpaceX/Seattle
Mission
Operational Commercial Communications
Bus & Motor
STARLINK, Unknown motor
Mass
297 kg wet, ~275 kg dry
Launch date (UTC)
2021-09-14 (5 years ago)
Launch vehicle
FALCON 9
Launch site
Air Force Western Test Range (AFWTR)
Object type
Payload
Rocket body
Debris
Shape & HBR
Box + 1 Pan, 10.1 m
Radar Cross Section
13.562 m², Large (>1 m²)

Expand to show TLE details & history
Last TLE update: 2 days ago

TLE from 2 days ago
0 STARLINK-3045
1 49173U 21082AV  26171.29876700  .00000234  00000-0  27361-4 0  9995
2 49173  69.9994  15.7343 0002693 268.1633  91.9217 14.98329886261842
Epoch: 2026-06-20T07:10Z
TLE epoch observation values (Epoch: 2026-06-20T07:10:13.468Z)
Latitude
-0.0001°
Longitude
-0.33724°
Altitude
574.543 km
Speed
7.574 km/s
True Right ascension
01h 02m 56s
True Declination
0° 00' 00"
Sunlit
Object was in daylight at epoch
Visualization orbit readout
Latitude
Unknown
Longitude
Unknown
Altitude
Unknown
Speed
Unknown
Apparent Right ascension
Unknown
Apparent Declination
Unknown
Sunlit
N/A
Visualization observer readout
Local Sidereal Time
21:39:09
Azimuth
Unknown
Elevation
Unknown
Doppler factor
Unknown
Orbital elements
Apogee altitude
571.876 km
Perigee altitude
568.133 km
Semi-major axis
6,948.142 km
Eccentricity
0.00027
Inclination
69.9994°
RAAN
15.7343°
Arg. of periapsis
268.1633°
True anomaly
91.95254°
Mean anomaly
91.9217°
Eccentric anomaly
91.93712°
Mean motion
3.74749 °/min
Orbital period
96.06 mins
BSTAR
0.000027361
Loading maneuver chart data...
Computing Atmospheric mass density...

Documentation

Showing up to 5 results
|